Regional Weather Roundup
Issued by NWS

Home | Current Version | Previous Version | Text Only | Print | Product List | Glossary Off
Versions: 1 2 3 4 5 6 7 8 9 10 11 12 13 14 15 16 17 18 19 20 21 22 23 24 25 26 27 28 29 30 31 32 33 34 35 36 37 38 39 40 41 42 43 44 45 46 47 48 49 50

000
ASUS43 KMPX 191110
RWRMN
WEATHER ROUNDUP FOR MINNESOTA
NATIONAL WEATHER SERVICE TWIN CITIES/CHANHASSEN MN
500 AM CST MON FEB 19 2018


NOTE: "FAIR" INDICATES FEW OR NO CLOUDS BELOW 12,000 FEET WITH NO
SIGNIFICANT WEATHER AND/OR OBSTRUCTIONS TO VISIBILITY. N/A MEANS
CURRENT SKY AND/OR WEATHER CONDITIONS ARE NOT AVAILABLE.

MNZ060>063-068>070-191200-
   Twin Cities Metro

CITY           SKY/WX    TMP DP  RH WIND       PRES   REMARKS
TWIN CITIES    CLOUDY    23  19  85 N21G26    29.82S WCI   8
ST PAUL        CLOUDY    24  19  81 N14G22    29.84F WCI  12
CRYSTAL        CLOUDY    21  15  78 N12G25    29.83F WCI   9
BLAINE         CLOUDY    21  18  86 N18G25    29.83F WCI   6
LAKEVILLE      CLOUDY    25  21  86 N14G22    29.81R WCI  13
EDEN PRAIRIE   CLOUDY    22  17  81 N18G28    29.80R WCI   7
SOUTH ST PAUL  CLOUDY    26  21  82 N16G22    29.81R WCI  13
LAKE ELMO      CLOUDY    27  23  86 N12G23    29.82R WCI  16
$$
MNZ001>005-007-008-013>017-022>024-027-028-191200-
   Northwest Minnesota

CITY           SKY/WX    TMP DP  RH WIND       PRES   REMARKS
BEMIDJI        FAIR       3  -1  82 N10       30.04S WCI -12
HALLOCK        FAIR      -2  -9  71 N9        30.22R WCI -18
WARROAD        FAIR       0  -8  71 N10       30.16S WCI -17
THIEF RVR FALL FAIR       1  -6  72 N12       30.16  WCI -16
CROOKSTON      FAIR       1  -4  78 N10       30.18R WCI -14
FOSSTON        FAIR       1  -2  85 N10       30.11R WCI -14
DETROIT LAKES  FAIR       9   3  78 N6        30.05R WCI  -1
MOORHEAD       FAIR       7   0  72 N18       30.13R WCI -12
PARK RAPIDS    CLOUDY     6   0  76 N10       29.98F WCI  -9
MAHNOMEN       PTSUNNY    5  -1  76 N14       30.07R WCI -13
$$
MNZ006-009>011-018-025>026-191200-
   North Central Minnesota

CITY           SKY/WX    TMP DP  RH WIND       PRES   REMARKS
BAUDETTE       FAIR      -2  -6  83 N8        30.12S WCI -17
FLAG ISLAND    FAIR      -4  -9  77 NE7       30.16S WCI -18
INTL FALLS     FAIR       3  -1  83 NE6       30.11F WCI  -8
WASKISH        FAIR       3   0  85 NE8       30.11R WCI -10
BIG FORK       FAIR       3   0  85 N8        30.04R WCI -10
LONGVILLE      FAIR       7   1  78 N9        29.98F WCI  -7
GRAND RAPIDS   FAIR       5   0  79 N8        30.02F WCI  -8
CRANE LAKE     FAIR       1  -2  85 CALM      30.10F
ORR            FAIR       1  -4  78 NE3       30.02F
COOK             N/A      1  -2  85 N3        30.03R
WALKER         CLOUDY     4   0  81 N12       30.01R WCI -12
$$
MNZ012-019>021-037-191200-
   Northeast Minnesota

CITY           SKY/WX    TMP DP  RH WIND       PRES   REMARKS
DULUTH         MOCLDY    11   5  77 N13       29.93S WCI  -4
ELY            FAIR       1  -2  85 N3        30.01F
HIBBING        CLOUDY     3  -2  79 N10       29.99S WCI -12
EVELETH        FAIR     N/A N/A N/A NE8       30.01S
DULUTH HARBOR  CLOUDY    19  12  73 N20       29.98S WCI   4
TWO HARBORS    FAIR      16   9  73 N8        29.96R WCI   5
GRAND MARAIS     N/A     10   0  63 N18G30    30.00R WCI  -8
G MARAIS ARPRT FAIR       1  -6  71 N15       29.94R WCI -18
$$
MNZ029>031-032-039>041-046>048-054>057-064-191200-
   West Central Minnesota

CITY           SKY/WX    TMP DP  RH WIND       PRES   REMARKS
FERGUS FALLS   CLOUDY     9   3  78 N12       30.04R WCI  -6
WHEATON        LGT SNOW   9   3  78 N18G24    30.04S WCI -10
MORRIS         LGT SNOW  12   9  85 N15       29.94F WCI  -4
ALEXANDRIA     CLOUDY    12   6  77 N16       29.95R WCI  -5
ELBOW LAKE     CLOUDY    11   5  76 NE13      30.00R WCI  -4
WADENA         CLOUDY     9   3  78 N12       30.00R WCI  -6
GLENWOOD       FAIR      12   7  79 N16G22    29.93R WCI  -4
APPLETON       CLOUDY    16   7  67 N15G22    29.98R WCI   1
BENSON         CLOUDY    14   7  73 NE12G22   29.96R WCI   0
ORTONVILLE     LGT SNOW  10   5  79 N17       30.00R WCI  -7
MADISON        LGT SNOW  16  10  79 N15       30.00R WCI   1
WILLMAR        CLOUDY    14  10  85 N15       29.95R WCI  -1
$$
MNZ033>034-036-042>043-049>051-058-059-191200-
   Central Minnesota

CITY           SKY/WX    TMP DP  RH WIND       PRES   REMARKS
ST CLOUD       LGT SNOW  13   9  84 N14       29.89S FOG     WCI  -2
SAUK CENTRE    CLOUDY    12   6  77 N15G22    29.94R WCI  -4
PAYNESVILLE    CLOUDY    14  10  87 N15G21    29.92R WCI  -2
AITKIN         FAIR       7   1  78 N10       29.94S WCI  -8
PINE RIVER     FAIR       7   1  78 N12       30.01R WCI  -9
BRAINERD       CLOUDY    10   2  69 N15       29.95S WCI  -7
STAPLES        CLOUDY     9   1  72 N12       29.98R WCI  -6
LONG PRAIRIE   FAIR      10   5  79 NW16      29.94R WCI  -7
LITTLE FALLS   CLOUDY    12   3  67 N6        29.97R WCI   3
LITCHFIELD     FAIR      16  12  86 N14       29.89R WCI   1
BUFFALO        CLOUDY    18  13  81 N13G22    29.87S WCI   4
MAPLE LAKE     FAIR      17  14  85 N10G20    29.89R WCI   5
HUTCHINSON     CLOUDY    19  14  81 N12       29.88R WCI   6
$$
MNZ037-044-045-052-053-191200-
   East Central Minnesota

CITY           SKY/WX    TMP DP  RH WIND       PRES   REMARKS
PRINCETON      MOCLDY    18  12  79 N14G21    29.89S WCI   4
MORA           LGT SNOW  14  10  85 N3        29.94R
CAMBRIDGE      FLURRIES  18  10  73 N13G21    29.89F WCI   4
RUSH CITY      LGT SNOW  16  12  84 N13G18    29.90R WCI   2
MOOSE LAKE     CLOUDY    14   9  79 N7        29.93R WCI   4
HINCKLEY       LGT SNOW  16  12  86 N14       29.92R WCI   1
CLOQUET        MOCLDY    10   3  72 N8        29.94S WCI  -1
MCGREGOR       MOCLDY    10   5  79 N14G21    29.95F WCI  -5
$$
MNZ071>073-080-081-089-090-097-098-191200-
   Southwest Minnesota

CITY           SKY/WX    TMP DP  RH WIND       PRES   REMARKS
MONTEVIDEO     LGT SNOW  16  10  79 N14       29.97R WCI   1
GRANITE FALLS  CLOUDY    18  13  80 N17G23    29.95R WCI   3
CANBY          LGT SNOW  13  10  84 N17       29.96R WCI  -3
MARSHALL       FLURRIES  15  10  80 N18G24    29.91F WCI  -2
REDWOOD FALLS  CLOUDY    16  10  77 N16G23    29.90R WCI   1
OLIVIA         CLOUDY    18  12  79 N12G17    29.92R WCI   5
PIPESTONE      CLOUDY    12   9  85 N18G28    29.82F WCI  -5
WINDOM         CLOUDY    18   5  57 N25G33    29.79F WCI  -1
WORTHINGTON    CLOUDY    16  13  88 N25G33    29.78S WCI  -3
JACKSON        CLOUDY    21  18  86 VRB29G35  29.75F WCI   3
TRACY          CLOUDY    17  14  88 N18       29.86S WCI   0
SLAYTON        CLOUDY    14  12  89 N26G33    29.81F WCI  -5
$$
MNZ065>067-074>077-082>085-091>093-191200-
   South Central Minnesota

CITY           SKY/WX    TMP DP  RH WIND       PRES   REMARKS
MANKATO        CLOUDY    25  21  85 N14       29.83R WCI  13
NEW ULM        CLOUDY    21  16  79 N9        29.86R WCI  11
ST JAMES       CLOUDY    21  19  93 N16G23    29.83S WCI   7
FAIRMONT       CLOUDY    23  21  92 N23       29.76F WCI   7
GLENCOE        CLOUDY    21  17  84 N12G22    29.85R WCI   9
FARIBAULT      CLOUDY    27  21  80 N12G18    29.80R WCI  16
OWATONNA       CLOUDY    25  21  86 N14       29.77R WCI  13
WASECA         CLOUDY    27  23  86 N10       29.80R WCI  17
ALBERT LEA     CLOUDY    27  25  93 N13       29.74S WCI  16
$$
MNZ078>079-086>088-094>096-191200-
   Southeast Minnesota

CITY           SKY/WX    TMP DP  RH WIND       PRES   REMARKS
ROCHESTER      CLOUDY    28  27  96 N9        29.73R WCI  19
RED WING       FAIR      27  19  74 N15G21    29.76S WCI  15
STANTON        CLOUDY    26  22  84 N12       29.80R WCI  16
DODGE CENTER   MOCLDY    25  23  93 N13       29.74R WCI  13
WINONA         FAIR      30  28  93 CALM      29.74R
AUSTIN         CLOUDY    27  25  93 N12       29.73R WCI  16
PRESTON        MOCLDY    31  28  86 CALM      29.72R
$$
ABBREVIATIONS USED IN REMARKS
   TC - TEMPERATURES IN CELSIUS
  WCI - WIND CHILL INDEX
   HX - HEAT INDEX
  VSB - VISIBILITY
$$




USA.gov is the U.S. government's official web portal to all federal, state and local government web resources and services.